Weather History for Garrison, ND

Change the Weather History Date:

Thursday, February 21, 2013

  Actual Average Record
Temperature  
Mean Temperature 16 °F -  
Max Temperature 21 °F 24 °F 43 °F (2002)
Min Temperature 11 °F 7 °F -18 °F (2003)
Degree Days  
Heating Degree Days 49    
Month to date heating degree days 996  
Moisture  
Dew Point 12 °F    
Average Humidity 85    
Maximum Humidity 92    
Minimum Humidity 77    
Precipitation  
Precipitation 0.09 in - - ()
Month to date precipitation 0.56  
Year to date precipitation 1.06  
Sea Level Pressure  
Sea Level Pressure 30.20 in    
Wind  
Wind Speed 11 mph (SE)    
Max Wind Speed 17 mph    
Max Gust Speed 20 mph    
Averages and records for this station are not official NWS values.
T = Trace of Precipitation, MM = Missing Value Source: NWS Daily Summary

Daily Weather History Graph

Daily Weather History Graph

Search for Another Location

Airport:

Trip Planner

Search our weather history database for the weather conditions in past years. The results will help you decide how hot, cold, wet, or windy it might be!

Date:

Astronomy

Feb. 21, 2013 Rise Set
Actual Time 7:40 AM CST 6:18 PM CST
Civil Twilight 7:09 AM CST 6:50 PM CST
Nautical Twilight 6:33 AM CST 7:26 PM CST
Astronomical Twilight 5:57 AM CST 8:01 PM CST
Moon 2:24 PM CST (2/21) 4:58 AM CST (2/21)
Length of Visible Light 11h 40m
Length of Day
10h 38m
Waxing Gibbous, 84% of the Moon is Illuminated
Feb 21
Waxing Gibbous
Feb 25
Full
Mar 4
Last Quarter
Mar 11
New
Mar 19
First Quarter

Hourly Weather History & Observations

Time (CST) Temp. Windchill Dew Point Humidity Pressure Visibility Wind Dir Wind Speed Gust Speed Precip Events Conditions
12:52 AM 12.0 °F -1.3 °F 8.1 °F 84% 30.22 in - SSE 10.4 mph - N/A   Unknown
1:52 AM 12.0 °F 0.5 °F 8.1 °F 84% 30.23 in - SE 8.1 mph - 0.01 in   Unknown
2:52 AM 12.9 °F -0.2 °F 9.0 °F 84% 30.22 in - SE 10.4 mph - 0.01 in   Unknown
3:52 AM 12.9 °F -0.2 °F 10.0 °F 88% 30.22 in - SSE 10.4 mph - 0.01 in   Unknown
4:52 AM 14.0 °F 1.2 °F 10.0 °F 84% 30.21 in - SE 10.4 mph - 0.01 in   Unknown
5:52 AM 14.0 °F 2.9 °F 10.0 °F 84% 30.21 in - SE 8.1 mph - N/A   Unknown
6:52 AM 14.0 °F 1.2 °F 10.9 °F 88% 30.21 in - SE 10.4 mph - N/A   Unknown
7:52 AM 15.1 °F 3.3 °F 10.9 °F 84% 30.21 in - SSE 9.2 mph - N/A   Unknown
8:52 AM 15.1 °F 4.2 °F 12.0 °F 88% 30.22 in - SE 8.1 mph - N/A   Unknown
9:52 AM 16.0 °F 2.9 °F 12.9 °F 88% 30.24 in - SSE 11.5 mph - 0.03 in   Unknown
10:52 AM 17.1 °F 4.3 °F 12.9 °F 84% 30.24 in - SSE 11.5 mph - 0.01 in   Unknown
11:52 AM 18.0 °F 6.1 °F 15.1 °F 88% 30.22 in - SSE 10.4 mph - N/A   Unknown
12:52 PM 18.0 °F 3.6 °F 14.0 °F 84% 30.22 in - SSE 15.0 mph - 0.01 in   Unknown
1:52 PM 19.9 °F 7.3 °F 16.0 °F 85% 30.21 in - SSE 12.7 mph - N/A   Unknown
2:52 PM 19.9 °F 7.3 °F 16.0 °F 85% 30.19 in - SSE 12.7 mph - N/A   Unknown
3:52 PM 21.0 °F 8.6 °F 16.0 °F 81% 30.17 in - SSE 12.7 mph - N/A   Unknown
4:52 PM 21.0 °F 11.4 °F 16.0 °F 81% 30.17 in - SE 8.1 mph - N/A   Unknown
5:52 PM 21.0 °F 9.9 °F 15.1 °F 78% 30.17 in - SE 10.4 mph - N/A   Unknown
6:52 PM 19.0 °F 6.8 °F 12.9 °F 77% 30.17 in - SE 11.5 mph - N/A   Unknown
7:52 PM 19.0 °F 7.5 °F 12.0 °F 74% 30.17 in - SE 10.4 mph - N/A   Unknown
8:52 PM 17.1 °F 5.8 °F 12.9 °F 84% 30.18 in - SE 9.2 mph - 0.01 in   Unknown
9:52 PM 16.0 °F 5.3 °F 12.0 °F 84% 30.18 in - SE 8.1 mph - N/A   Unknown
10:52 PM 15.1 °F 4.2 °F 10.9 °F 84% 30.17 in - SE 8.1 mph - N/A   Unknown
11:52 PM 15.1 °F 5.2 °F 10.9 °F 84% 30.14 in - SSE 6.9 mph - N/A   Unknown